Погода в Супонево

Россия / Московская область     55°45′03″N   36°52′27″E
темп.,
°C
ветер,
м/с
пор.,
м/с
влажн.,
%
обл.,
%
осадки,
мм/ч
давл.,
гПа
погр.,
м
19 января, ср
ср1900:00−11сз4119382 0.0 1017320
03:00−15сз3109877 0.0 1019169
06:00−17зсз259998 0.0 101976
09:00−16зюз239789 0.0 101849
12:00−9юз369076 0.0 1017173
15:00−7ююз398936 0.0 1015300
18:00−9ююз3109683 0.0 1014231
21:00−9ююз4109691 0.1 1012244
20 января, чт
чт2000:00−7ююз41195100 0.1 1011330
03:00−5ююз4129597 0.1 1009382
06:00−4ююз5139599 0.1 1007462
09:00−4ююз51394100 0.1 1006562
12:00−3ююз51494100 0.1 1005652
15:00−3ю61592100 0.1 1003762
18:00−4ю61491100 0.1 1002754
21:00−4ю61494100 0.8 1002771
21 января, пт
пт2100:00−4ю61495100 0.6 1001797
03:00−3ю51292100 1.4 1002660
06:00−3ю51092100 0.2 1002755
09:00−4ююв4994100 0.2 1003434
12:00−5юв4995100 0.1 1002458
15:00−5юв4895100 0.6 1001442
18:00−6юв3996100 0.8 1001434
21:00−6юв3896100 2.4 1001393
22 января, сб
сб2200:00−11ююв229975 0.4 100421
03:00−13вюв2598100 0.4 100689
06:00−10вюв379683 0.3 1007219
09:00−10в399596 0.3 1009283
12:00−8вюв4894100 0.2 1011358
15:00−7в3795100 0.3 1013389
18:00−8в389592 0.2 1016306
21:00−10в379690 0.4 1019213
23 января, вс
вс2300:00−14в239983 0.1 102243
03:00−19св1110099 0.1 10249
06:00−17св2310099 0.1 102655
09:00−16ссв119974 0.1 102810
12:00−10св119591 0.0 1029128
15:00−9с119680 0.1 103035
18:00−16с1110089 0.0 10329
21:00−19с11100100 0.1 10349